Iron Mountain, MI

6:13 PM CDT on October 23, 2017 (GMT -0500)
Ford

Weather History for KIMT - August, 2014

Change the Weather History Date:

Wednesday, August 13, 2014

  Actual Average Record
Temperature  
Mean Temperature 60 °F -  
Max Temperature 75 °F 78 °F 93 °F (1944)
Min Temperature 48 °F 54 °F 38 °F (1941)
Degree Days  
Heating Degree Days 4    
Growing Degree Days 10 (Base 50)    
Moisture  
Dew Point 47 °F    
Average Humidity 62    
Maximum Humidity 93    
Minimum Humidity 35    
Precipitation  
Precipitation 0.00 in - - ()
Sea Level Pressure  
Sea Level Pressure 30.01 in    
Wind  
Wind Speed 5 mph (NNW)    
Max Wind Speed 15 mph    
Max Gust Speed 24 mph    
Visibility 10 miles    
Events      
Averages and records for this station are not official NWS values.
T = Trace of Precipitation, MM = Missing Value Source: NWS Daily Summary

Daily Weather History Graph

Daily Weather History Graph

Search for Another Location

Airport or City:

Trip Planner

Search our weather history database for the weather conditions in past years. The results will help you decide how hot, cold, wet, or windy it might be!

Date:

Astronomy

Aug. 13, 2014 Rise Set
Actual Time 5:49 AM CDT 8:03 PM CDT
Civil Twilight 5:17 AM CDT 8:36 PM CDT
Nautical Twilight 4:36 AM CDT 9:16 PM CDT
Astronomical Twilight 3:50 AM CDT 10:02 PM CDT
Moon 9:33 PM CDT (8/13) 9:31 AM CDT (8/13)
Length of Visible Light 15h 19m
Length of Day
14h 13m
Waning Gibbous, 87% of the Moon is Illuminated
Aug 13
Waning Gibbous
Aug 17
Last Quarter
Aug 25
New
Sep 2
First Quarter
Sep 8
Full

Hourly Weather History & Observations

Time (CDT) Temp. Dew Point Humidity Pressure Visibility Wind Dir Wind Speed Gust Speed Precip Events Conditions
12:54 AM 53.1 °F 50.0 °F 89% 29.93 in 10.0 mi Calm Calm - N/A   Mostly Cloudy
1:54 AM 53.1 °F 48.0 °F 83% 29.93 in 10.0 mi Calm Calm - N/A   Partly Cloudy
2:54 AM 51.1 °F 46.9 °F 86% 29.94 in 10.0 mi Calm Calm - N/A   Clear
3:54 AM 48.9 °F 46.9 °F 93% 29.94 in 10.0 mi Calm Calm - N/A   Clear
4:54 AM 50.0 °F 46.0 °F 86% 29.95 in 10.0 mi Calm Calm - N/A   Clear
5:54 AM 50.0 °F 48.0 °F 93% 29.97 in 10.0 mi Calm Calm - N/A   Partly Cloudy
8:54 AM 64.9 °F 52.0 °F 63% 30.01 in 10.0 mi NNW 10.4 mph - N/A   Scattered Clouds
10:54 AM 68.0 °F 52.0 °F 56% 30.02 in 10.0 mi NW 11.5 mph 24.2 mph N/A   Mostly Cloudy
11:54 AM 71.1 °F 50.0 °F 47% 30.02 in 10.0 mi NNW 11.5 mph - N/A   Mostly Cloudy
12:54 PM 72.0 °F 46.9 °F 41% 30.01 in 10.0 mi North 13.8 mph 21.9 mph N/A   Scattered Clouds
1:54 PM 73.9 °F 48.0 °F 40% 30.01 in 10.0 mi NW 11.5 mph - N/A   Scattered Clouds
2:54 PM 73.9 °F 45.0 °F 35% 30.02 in 10.0 mi North 15.0 mph - N/A   Scattered Clouds
3:54 PM 73.0 °F 45.0 °F 37% 30.03 in 10.0 mi NNW 12.7 mph - N/A   Clear
4:54 PM 71.1 °F 46.0 °F 41% 30.04 in 10.0 mi NNW 12.7 mph - N/A   Partly Cloudy
5:54 PM 69.1 °F 46.0 °F 44% 30.05 in 10.0 mi NNW 15.0 mph - N/A   Clear
6:54 PM 66.9 °F 44.1 °F 44% 30.07 in 10.0 mi NNW 10.4 mph - N/A   Clear
7:54 PM 62.1 °F 45.0 °F 53% 30.08 in 10.0 mi North 11.5 mph - N/A   Clear
8:54 PM 55.0 °F 45.0 °F 69% 30.09 in 10.0 mi North 8.1 mph - N/A   Clear
11:54 PM 48.0 °F 43.0 °F 83% 30.13 in 10.0 mi NNW 3.5 mph - N/A   Clear